Location: Paderno d�Adda
(45.6667°N, 9.4333°E)
Time: 16:22:46
(UTC+00:00)

Cosmos 2298 Rocket - Pass Details

Date: 19 September 2020
Orbit: 776 x 783 km, 74.0° (Epoch: 21 October)

Event Time Altitude Azimuth Distance (km) Brightness Sun altitude
Rises 19:23:30 0° 207° (SSW) 3,258 7.3 -20.9°
Reaches altitude 10° 19:25:54 10° 210° (SSW) 2,334 6.5 -21.2°
Maximum altitude 19:31:11 69° 293° (WNW) 842 4.3 -22.1°
Drops below altitude 10° 19:36:31 10° 17° (NNE) 2,349 6.6 -22.9°
Sets 19:38:56 0° 20° (NNE) 3,280 7.4 -23.3°
